Regional Weather Roundup
Issued by NWS Charleston, SC

Current Version | Previous Version | Text Only | Print | Product List | Glossary Off
Versions: 1 2 3 4 5 6 7 8 9 10 11 12 13 14 15 16 17 18 19 20 21 22 23 24 25 26 27 28 29 30 31 32 33 34 35 36 37 38 39 40 41 42 43 44 45 46 47 48 49 50

000
ASUS42 KCHS 290627
RWRCHS

REGIONAL WEATHER ROUNDUP
NATIONAL WEATHER SERVICE CHARLESTON SC
200 AM EDT SAT APR 29 2017

NOTE: "FAIR" INDICATES FEW OR NO CLOUDS BELOW 12,000 FEET WITH NO
SIGNIFICANT WEATHER AND/OR OBSTRUCTIONS TO VISIBILITY.

NOT ALL STATIONS ARE QUALITY CONTROLLED. USE DATA WITH CAUTION...
ESPECIALLY DEWPOINT OBSERVATIONS.

SCZ027-030-031-034>040-042>050-290700-
...SOUTHEAST SOUTH CAROLINA...

CITY           SKY/WX    TMP DP  RH WIND       PRES   REMARKS
N CHARLESTON   PTCLDY    73  70  90 S7        30.14S
6HR MIN TEMP:  73; 6HR MAX TEMP:  77;

WATERFRONT PRK   N/A     76  74  93 S12       30.12S
JOHNS ISLAND   FAIR      75  73  94 S12       30.14S
PINOPOLIS        N/A     73  73 100 CALM      30.06F
MONCKS CORNER  FAIR      72  70  94 S3        30.13F
SUMMERVILLE    FAIR      73  72  94 CALM      30.14F
BEAUFORT MCAS  MOCLDY    77  75  93 S13G20    30.14S
6HR MIN TEMP:  77; 6HR MAX TEMP:  78;

BEAUFORT ARPT  CLOUDY    73  72  94 S9G17     30.13F
HILTON HEAD IS MOCLDY    75  75 100 S8        30.15S FOG
WALTERBORO     CLEAR     72  72 100 S6        30.14S
ALLENDALE      CLOUDY    73  72  94 S5        30.11F

...SOUTHERN MIDLANDS AND PEE DEE...

CITY           SKY/WX    TMP DP  RH WIND       PRES   REMARKS
GEORGETOWN     CLOUDY    73  73 100 S12       30.16S
KINGSTREE      CLOUDY    73  72  94 S6        30.13F
ORANGEBURG     CLOUDY    73  71  93 S7        30.13S
6HR MIN TEMP:  73; 6HR MAX TEMP:  82; 6HR PCP: TRACE;

BARNWELL       FAIR      75  73  94 CALM      30.12S
AIKEN          FAIR      72  68  88 S7        30.15S
MANNING        CLOUDY    73  70  88 S17G24    30.13S
COLUMBIA       CLEAR     75  69  81 S3        30.11R
6HR MIN TEMP:  75; 6HR MAX TEMP:  87;

SUMTER         MOCLDY    73  70  89 S8        30.11S
6HR MIN TEMP:  73; 6HR MAX TEMP:  82;

FLORENCE       CLOUDY    74  73  97 S8        30.13F
6HR MIN TEMP:  74; 6HR MAX TEMP:  82;

MYRTLE BEACH   CLOUDY    75  73  93 S8        30.17S
N MYRTLE BEACH MOCLDY    73  73 100 S8        30.15F
6HR MIN TEMP:  73; 6HR MAX TEMP:  75;


$$

GAZ063-065-086>088-099>101-113>116-118-119-134>141-150-290700-
...SOUTHEAST GEORGIA...

CITY           SKY/WX    TMP DP  RH WIND       PRES   REMARKS
SAVANNAH ARPT  MOCLDY    76  71  85 S14       30.14R
6HR MIN TEMP:  75; 6HR MAX TEMP:  80;

HUNTER AAF     PTCLDY    77  77 100 S8G17     30.11F
6HR MIN TEMP:  75; 6HR MAX TEMP:  78;

FORT STEWART   MOCLDY    73  70  88 SE5       30.11S
6HR MIN TEMP:  73; 6HR MAX TEMP:  81;

STATESBORO     CLEAR     75  71  87 S6        30.13S
SYLVANIA       CLEAR    N/A N/A N/A S3        30.14S
CLAXTON        FAIR      74  74 100 CALM      30.13S

...CSRA...CENTRAL AND FAR SOUTHEAST GEORGIA...

CITY           SKY/WX    TMP DP  RH WIND       PRES   REMARKS
THOMSON        PTCLDY    73  70  88 SW5       30.15S
AUGUSTA-BUSH   PTCLDY    77  71  82 S7        30.10S HAZE
6HR MIN TEMP:  76; 6HR MAX TEMP:  83;

AUGUSTA-DANIEL CLOUDY    76  69  79 SE7       30.12R
SWAINSBORO     FAIR      75  70  83 SE7       30.12F
VIDALIA        PTCLDY    75  70  83 SE5       30.12F
EASTMAN        FAIR      70  70  99 CALM      30.13S
HAZLEHURST     FAIR      76  72  87 S3        30.10S
ALMA           CLOUDY    74  69  85 SE7       30.11S
6HR MIN TEMP:  74; 6HR MAX TEMP:  83;

WAYCROSS       PTCLDY    76  74  91 SE5       30.12S
JESUP          FAIR      73  68  83 CALM      30.13S
BAXLEY         FAIR      73  73 100 SE3       30.12S
BRUNSWICK      CLOUDY    77  73  88 SE13      30.14S
SAINT SIMONS   MOCLDY    76  73  91 S10       30.14S
6HR MIN TEMP:  76; 6HR MAX TEMP:  78;


$$

SCZ027-028-034-036>038-045-046-048>050-GAZ119-141-290700-
...LAKE AND SUPPLEMENTAL COASTAL OBSERVATIONS...

STATION/POSITION TIME  TEMP    WIND        PRES    WAVE   SWELL
                       AIR SEA DIR/SP/G            HT/PER HT/PER/DIR
                 (UTC) (F)     (DEG/KT/KT) (MB)    (FT/S) (FT/S/D)
WINYAH BAY       0545   75     200/ 10     1021.0S
LAKE MURRAY      0620   74     170/  8/ 12 1019.0S
ACE BASIN NERRS  0530   76     170/  1     1021.0S
FORT PULASKI     0600   75 76  190/  5/  8 1021.0
SAPELO ISLAND    0545   76     160/ 11     1021.0R

$$

ANZ835-935-AMZ111-154-330-350-352-354-370-450-454-472-290700-
...C-MAN AND BUOY OBSERVATIONS...

STATION/POSITION TIME  TEMP    WIND        PRES    WAVE   SWELL
                       AIR SEA DIR/SP/G            HT/PER HT/PER/DIR
                 (UTC) (F)     (DEG/KT/KT) (MB)    (FT/S) (FT/S/D)
BUOY 41004       0610   75 74  170/ 14/ 16 1020.8
BUOY 41008       0550   74 73  150/ 12/ 14 1020.1R   3/ 5   2/120/ 8
FOLLY BEACH CMAN 0600   75     160/ 16/ 18 1021.0F
CAPERS NEARSHORE 0608   74 74  180/ 14/ 19 1020.3F
FRIPP NEARSHORE  0608   74 74  180/ 14/ 17 1020.1F


STATION/POSITION TIME  TEMP    WIND        PRES    WAVE   SWELL
                       AIR SEA DIR/SP/G            HT/PER HT/PER/DIR
                 (UTC) (F)     (DEG/KT/KT) (MB)    (FT/S) (FT/S/D)
5E ST. MARYS GA  0600      74                N/A     3/ 5
FRYING PAN BUOY  0610   75 73  180/ 10/ 12 1021.4
BUOY 41025       0550   77 76  200/ 17/ 19 1021.8F   4/ 8   2/130/ 8
CAPE LOOKOUT NC  0600   73     190/  7/  9 1021.4F
BUOY 41002       0550   74 74  160/ 14/ 17 1023.8F   4/ 8   3/ 60/ 8
BUOY 41010       0610   77 79  140/ 16/ 19 1021.4
ST AUGUSTINE FL  0600   76 78  160/ 15/ 17 1021.3R


$$




USA.gov is the U.S. government's official web portal to all federal, state and local government web resources and services.